Location: Bonn
(50.7330°N, 7.1000°E)
Time: 19:26:42
(UTC+02:00)

Cosmos 1933 Rocket - Visible Passes

Search period start: 01 May 2016 00:00
Search period end: 11 May 2016 00:00
Orbit: 606 x 632 km, 82.5° (Epoch: 01 May)

Date Brightness Start Highest point End Pass type
(mag) Time Alt. Az. Time Alt. Az. Time Alt. Az.
02 May 6.9 05:27:33 10° E 05:28:52 11° E 05:30:12 10° ENE visible
06 May 6.7 04:58:43 10° ESE 05:00:16 12° E 05:01:50 10° ENE visible
07 May 6.3 05:14:08 10° SE 05:17:17 20° E 05:20:26 10° NE visible
10 May 6.5 04:29:53 10° ESE 04:31:40 12° E 04:33:26 10° ENE visible
